OK1VCF-8 Weather Reports


time (UTC)temp
F
wind
direction
speed
knots
gust
knots
rain 1hr
in
rain 24hr
in
rain mn
in
humidity
%
barometer
mb
20260510151222 78 0 0.0 0.0 0.00 0.00 0.00 30 1011.4
20260510150501 76 0 0.0 0.0 0.00 0.00 0.00 31 1011.6
20260510145739 77 0 0.0 0.0 0.00 0.00 0.00 30 1011.6
20260510145020 80 0 0.0 0.0 0.00 0.00 0.00 30 1011.6
20260510144300 76 0 0.0 0.0 0.00 0.00 0.00 34 1011.7
20260510143256 74 0 0.0 0.0 0.00 0.00 0.00 34 1011.6
20260510142537 74 0 0.0 0.0 0.00 0.00 0.00 35 1011.7
20260510141817 74 0 0.0 0.0 0.00 0.00 0.00 36 1011.8
20260510141058 73 0 0.0 0.0 0.00 0.00 0.00 38 1011.8
20260510140339 71 0 0.0 0.0 0.00 0.00 0.00 39 1011.8
20260510135617 70 0 0.0 0.0 0.00 0.00 0.00 40 1011.9
20260510134858 71 0 0.0 0.0 0.00 0.00 0.00 40 1012.1
20260510134140 72 0 0.0 0.0 0.00 0.00 0.00 38 1012.2
20260510133419 71 0 0.0 0.0 0.00 0.00 0.00 38 1012.4
20260510132700 72 0 0.0 0.0 0.00 0.00 0.00 38 1012.4
20260510131939 72 0 0.0 0.0 0.00 0.00 0.00 38 1012.6
20260510131216 71 0 0.0 0.0 0.00 0.00 0.00 38 1012.7
20260510130445 71 0 0.0 0.0 0.00 0.00 0.00 39 1012.7
20260510125702 70 0 0.0 0.0 0.00 0.00 0.00 40 1012.8
20260510124908 71 0 0.0 0.0 0.00 0.00 0.00 40 1012.9
20260510123734 70 0 0.0 0.0 0.00 0.00 0.00 39 1013.0
20260510122905 71 0 0.0 0.0 0.00 0.00 0.00 40 1013.1
20260510122035 70 0 0.0 0.0 0.00 0.00 0.00 41 1013.4
20260510121212 69 0 0.0 0.0 0.00 0.00 0.00 40 1013.4
20260510120351 69 0 0.0 0.0 0.00 0.00 0.00 45 1013.4
20260510114054 68 0 0.0 0.0 0.00 0.00 0.00 47 1014.0
20260510113312 67 0 0.0 0.0 0.00 0.00 0.00 46 1014.0
20260510112534 68 0 0.0 0.0 0.00 0.00 0.00 49 1014.0
20260510111810 67 0 0.0 0.0 0.00 0.00 0.00 50 1014.2
20260510111049 67 0 0.0 0.0 0.00 0.00 0.00 50 1014.2
20260510110329 67 0 0.0 0.0 0.00 0.00 0.00 50 1014.2
20260510105607 66 0 0.0 0.0 0.00 0.00 0.00 51 1014.4
20260510104848 65 0 0.0 0.0 0.00 0.00 0.00 52 1014.4
20260510103844 66 0 0.0 0.0 0.00 0.00 0.00 53 1015.0
20260510103124 65 0 0.0 0.0 0.00 0.00 0.00 53 1014.6
20260510102403 66 0 0.0 0.0 0.00 0.00 0.00 52 1014.6
20260510101644 64 0 0.0 0.0 0.00 0.00 0.00 54 1014.6
20260510100924 65 0 0.0 0.0 0.00 0.00 0.00 55 1015.0
20260510100204 64 0 0.0 0.0 0.00 0.00 0.00 55 1015.2
20260510095443 63 0 0.0 0.0 0.00 0.00 0.00 54 1015.1
20260510094723 63 0 0.0 0.0 0.00 0.00 0.00 54 1015.2
20260510094003 62 0 0.0 0.0 0.00 0.00 0.00 54 1015.3
20260510093243 63 0 0.0 0.0 0.00 0.00 0.00 54 1015.4
20260510092522 62 0 0.0 0.0 0.00 0.00 0.00 55 1015.6
20260510091805 62 0 0.0 0.0 0.00 0.00 0.00 55 1015.6
20260510091045 62 0 0.0 0.0 0.00 0.00 0.00 58 1015.8
20260510090327 62 0 0.0 0.0 0.00 0.00 0.00 56 1015.9
20260510085606 62 0 0.0 0.0 0.00 0.00 0.00 56 1015.9
20260510084603 60 0 0.0 0.0 0.00 0.00 0.00 58 1016.0
20260510083842 60 0 0.0 0.0 0.00 0.00 0.00 58 1016.5
20260510083122 60 0 0.0 0.0 0.00 0.00 0.00 58 1016.0
20260510082401 60 0 0.0 0.0 0.00 0.00 0.00 60 1016.4
20260510081641 58 0 0.0 0.0 0.00 0.00 0.00 60 1016.4
20260510080920 58 0 0.0 0.0 0.00 0.00 0.00 60 1016.5
20260510080202 58 0 0.0 0.0 0.00 0.00 0.00 61 1016.4
20260510075441 58 0 0.0 0.0 0.00 0.00 0.00 60 1016.6
20260510074722 58 0 0.0 0.0 0.00 0.00 0.00 60 1016.6
20260510074004 58 0 0.0 0.0 0.00 0.00 0.00 62 1016.6
20260510073243 56 0 0.0 0.0 0.00 0.00 0.00 63 1016.7
20260510072516 56 0 0.0 0.0 0.00 0.00 0.00 64 1016.8
20260510071736 56 0 0.0 0.0 0.00 0.00 0.00 64 1017.0
20260510070959 55 0 0.0 0.0 0.00 0.00 0.00 66 1017.1
20260510070216 55 0 0.0 0.0 0.00 0.00 0.00 66 1017.0
20260510065139 55 0 0.0 0.0 0.00 0.00 0.00 67 1017.3
20260510064359 54 0 0.0 0.0 0.00 0.00 0.00 68 1017.4
20260510063620 54 0 0.0 0.0 0.00 0.00 0.00 70 1017.6
20260510062839 53 0 0.0 0.0 0.00 0.00 0.00 70 1017.4
20260510062101 53 0 0.0 0.0 0.00 0.00 0.00 72 1017.4
20260510061325 52 0 0.0 0.0 0.00 0.00 0.00 72 1017.4
20260510060549 53 0 0.0 0.0 0.00 0.00 0.00 72 1017.4
20260510055812 52 0 0.0 0.0 0.00 0.00 0.00 72 1017.6
20260510055040 52 0 0.0 0.0 0.00 0.00 0.00 74 1017.7
20260510054322 52 0 0.0 0.0 0.00 0.00 0.00 74 1017.8
20260510053603 50 0 0.0 0.0 0.00 0.00 0.00 76 1017.8
20260510052844 50 0 0.0 0.0 0.00 0.00 0.00 77 1017.8
20260510052126 50 0 0.0 0.0 0.00 0.00 0.00 76 1017.9
20260510051407 50 0 0.0 0.0 0.00 0.00 0.00 77 1017.8
20260510050649 49 0 0.0 0.0 0.00 0.00 0.00 78 1017.8
20260510045644 49 0 0.0 0.0 0.00 0.00 0.00 78 1017.8
20260510044927 50 0 0.0 0.0 0.00 0.00 0.00 72 1017.8
20260510044209 56 0 0.0 0.0 0.00 0.00 0.00 64 1017.8
20260510043452 56 0 0.0 0.0 0.00 0.00 0.00 66 1017.7
20260510042731 52 0 0.0 0.0 0.00 0.00 0.00 75 1017.8
20260510042013 48 0 0.0 0.0 0.00 0.00 0.00 79 1017.8
20260510041255 48 0 0.0 0.0 0.00 0.00 0.00 78 1017.8
20260510040538 52 0 0.0 0.0 0.00 0.00 0.00 77 1017.8
20260510035818 50 0 0.0 0.0 0.00 0.00 0.00 80 1018.0
20260510035101 47 0 0.0 0.0 0.00 0.00 0.00 87 1017.8
20260510034342 44 0 0.0 0.0 0.00 0.00 0.00 90 1017.8
20260510033625 43 0 0.0 0.0 0.00 0.00 0.00 90 1017.6
20260510032907 42 0 0.0 0.0 0.00 0.00 0.00 89 1017.6
20260510032148 42 0 0.0 0.0 0.00 0.00 0.00 89 1017.6
20260510031430 42 0 0.0 0.0 0.00 0.00 0.00 88 1017.5
20260510030429 44 0 0.0 0.0 0.00 0.00 0.00 89 1017.6
20260510025709 42 0 0.0 0.0 0.00 0.00 0.00 89 1017.6
20260510024952 42 0 0.0 0.0 0.00 0.00 0.00 88 1017.8
20260510024234 42 0 0.0 0.0 0.00 0.00 0.00 88 1017.8
20260510023517 43 0 0.0 0.0 0.00 0.00 0.00 88 1017.6
20260510022800 44 0 0.0 0.0 0.00 0.00 0.00 88 1017.8
20260510022041 44 0 0.0 0.0 0.00 0.00 0.00 88 1017.8
20260510021322 44 0 0.0 0.0 0.00 0.00 0.00 88 1018.1
20260510020605 44 0 0.0 0.0 0.00 0.00 0.00 88 1018.2
20260510015847 44 0 0.0 0.0 0.00 0.00 0.00 87 1018.2
20260510015130 44 0 0.0 0.0 0.00 0.00 0.00 86 1018.2
20260510014413 44 0 0.0 0.0 0.00 0.00 0.00 87 1018.2
20260510013655 45 0 0.0 0.0 0.00 0.00 0.00 88 1018.3
20260510012935 44 0 0.0 0.0 0.00 0.00 0.00 85 1018.4
20260510012216 46 0 0.0 0.0 0.00 0.00 0.00 85 1018.4
20260510011133 45 0 0.0 0.0 0.00 0.00 0.00 85 1018.4
20260510010336 46 0 0.0 0.0 0.00 0.00 0.00 86 1018.4
20260510005538 44 0 0.0 0.0 0.00 0.00 0.00 85 1018.4
20260510004750 46 0 0.0 0.0 0.00 0.00 0.00 84 1018.5
20260510002511 45 0 0.0 0.0 0.00 0.00 0.00 84 1018.8
20260510001714 45 0 0.0 0.0 0.00 0.00 0.00 84 1019.0
20260510000916 46 0 0.0 0.0 0.00 0.00 0.00 84 1019.0
20260510000120 46 0 0.0 0.0 0.00 0.00 0.00 82 1019.2
20260509235315 46 0 0.0 0.0 0.00 0.00 0.00 82 1019.2
20260509234518 46 0 0.0 0.0 0.00 0.00 0.00 80 1019.2
20260509233731 48 0 0.0 0.0 0.00 0.00 0.00 83 1019.3
20260509232955 46 0 0.0 0.0 0.00 0.00 0.00 82 1019.2
20260509232223 47 0 0.0 0.0 0.00 0.00 0.00 81 1019.2
20260509231221 48 0 0.0 0.0 0.00 0.00 0.00 80 1019.4
20260509230502 47 0 0.0 0.0 0.00 0.00 0.00 82 1019.5
20260509225743 47 0 0.0 0.0 0.00 0.00 0.00 82 1019.4
20260509225024 47 0 0.0 0.0 0.00 0.00 0.00 80 1019.6
20260509224305 48 0 0.0 0.0 0.00 0.00 0.00 80 1019.5
20260509223548 48 0 0.0 0.0 0.00 0.00 0.00 80 1019.6
20260509222830 48 0 0.0 0.0 0.00 0.00 0.00 79 1019.6
20260509222111 48 0 0.0 0.0 0.00 0.00 0.00 80 1019.6
20260509221352 48 0 0.0 0.0 0.00 0.00 0.00 78 1019.6
20260509220634 48 0 0.0 0.0 0.00 0.00 0.00 78 1019.5
20260509215915 49 0 0.0 0.0 0.00 0.00 0.00 78 1019.5
20260509215157 49 0 0.0 0.0 0.00 0.00 0.00 79 1019.6
20260509214438 48 0 0.0 0.0 0.00 0.00 0.00 80 1019.8
20260509212017 50 0 0.0 0.0 0.00 0.00 0.00 78 1019.8
20260509211258 50 0 0.0 0.0 0.00 0.00 0.00 78 1019.9
20260509210539 50 0 0.0 0.0 0.00 0.00 0.00 78 1020.0
20260509205822 50 0 0.0 0.0 0.00 0.00 0.00 78 1019.9
20260509205103 50 0 0.0 0.0 0.00 0.00 0.00 77 1020.0
20260509204345 50 0 0.0 0.0 0.00 0.00 0.00 76 1020.0
20260509203628 50 0 0.0 0.0 0.00 0.00 0.00 76 1019.9
20260509202910 50 0 0.0 0.0 0.00 0.00 0.00 76 1020.0
20260509202152 51 0 0.0 0.0 0.00 0.00 0.00 76 1019.9
20260509201427 50 0 0.0 0.0 0.00 0.00 0.00 76 1020.0
20260509200709 50 0 0.0 0.0 0.00 0.00 0.00 76 1020.0
20260509195950 52 0 0.0 0.0 0.00 0.00 0.00 74 1020.0
20260509195231 52 0 0.0 0.0 0.00 0.00 0.00 74 1019.8
20260509194514 52 0 0.0 0.0 0.00 0.00 0.00 74 1019.8
20260509193756 52 0 0.0 0.0 0.00 0.00 0.00 72 1019.8
20260509192753 52 0 0.0 0.0 0.00 0.00 0.00 72 1019.7
20260509192034 52 0 0.0 0.0 0.00 0.00 0.00 72 1019.7
20260509191317 52 0 0.0 0.0 0.00 0.00 0.00 71 1019.6
20260509190559 53 0 0.0 0.0 0.00 0.00 0.00 70 1019.6
20260509185839 53 0 0.0 0.0 0.00 0.00 0.00 70 1019.5
20260509185120 54 0 0.0 0.0 0.00 0.00 0.00 70 1019.5
20260509184401 54 0 0.0 0.0 0.00 0.00 0.00 70 1019.5
20260509183642 54 0 0.0 0.0 0.00 0.00 0.00 68 1019.4
20260509182924 55 0 0.0 0.0 0.00 0.00 0.00 68 1019.4
20260509182206 56 0 0.0 0.0 0.00 0.00 0.00 66 1019.4
20260509181446 56 0 0.0 0.0 0.00 0.00 0.00 64 1019.4
20260509180728 56 0 0.0 0.0 0.00 0.00 0.00 64 1019.6
20260509180007 57 0 0.0 0.0 0.00 0.00 0.00 63 1019.4
20260509175248 58 0 0.0 0.0 0.00 0.00 0.00 62 1019.4
20260509174531 58 0 0.0 0.0 0.00 0.00 0.00 60 1019.4
20260509173528 58 0 0.0 0.0 0.00 0.00 0.00 58 1019.4
20260509172810 60 0 0.0 0.0 0.00 0.00 0.00 56 1019.4
20260509172052 60 0 0.0 0.0 0.00 0.00 0.00 56 1019.4
20260509171333 61 0 0.0 0.0 0.00 0.00 0.00 54 1019.4
20260509170615 62 0 0.0 0.0 0.00 0.00 0.00 54 1019.4
20260509164431 65 0 0.0 0.0 0.00 0.00 0.00 48 1019.4
20260509163713 68 0 0.0 0.0 0.00 0.00 0.00 44 1019.3
20260509162954 70 0 0.0 0.0 0.00 0.00 0.00 42 1019.5
20260509162235 66 0 0.0 0.0 0.00 0.00 0.00 48 1019.4
20260509161516 64 0 0.0 0.0 0.00 0.00 0.00 50 1019.5
20260509160800 69 0 0.0 0.0 0.00 0.00 0.00 42 1020.0
20260509160040 73 0 0.0 0.0 0.00 0.00 0.00 39 1019.6
20260509155320 66 0 0.0 0.0 0.00 0.00 0.00 48 1019.6
20260509154317 65 0 0.0 0.0 0.00 0.00 0.00 49 1019.6
20260509153558 65 0 0.0 0.0 0.00 0.00 0.00 48 1019.6
20260509152837 65 0 0.0 0.0 0.00 0.00 0.00 48 1019.6
20260509152118 64 0 0.0 0.0 0.00 0.00 0.00 50 1019.7